Location: Laguna de la Cañada del Gallo
(40.3974°N, 5.2096°W)
Time: 12:03:10
(UTC+00:00)

CZ-4C R/B - Pass Details

Date: 18 April 2024
Orbit: 446 x 584 km, 98.0° (Epoch: 21 May)

Event Time Altitude Azimuth Distance (km) Brightness Sun altitude
Rises 20:54:10 0° 8° (N) 2,478 7.0 -19.8°
Reaches altitude 10° 20:56:14 10° 4° (N) 1,589 6.1 -20.1°
Maximum altitude 20:59:33 55° 286° (WNW) 542 3.5 -20.7°
Enters shadow 21:01:13 26° 217° (SW) 925 4.4 -20.9°
